STARLINK-3747, 52306

Orbit data source: Space-Track

STARLINK-3747, 52306 is a payload satellite owned by SpaceX/Seattle (US) in LEO that was launched on Thu, 21 Apr 2022 UTC via an FALCON 9 launch vehicle from the Air Force Eastern Test Range (AFETR). Payload-class satellites include a variety of spacecraft equipped with specific instruments for various scientific and technological missions. These include communications satellites like Starlink; space stations such as the ISS; scientific satellites like the Hubble; Earth observation satellites from companies like Planet Labs, Umbra, and HawkEye 360; GPS; miniature CubeSats for education and research; and military/defense satellites.

Loading next visibility...
Identifier
52306, 2022-041AX
Orbit
LEO
Country
Flag of USUS
Related business
Manufacturer
SpaceX/Seattle
Mission
Operational Commercial Communications
Bus & Motor
STARLINK, Unknown motor
Mass
297 kg wet, ~275 kg dry
Launch date (UTC)
2022-04-21 (4 years ago)
Launch vehicle
FALCON 9
Launch site
Air Force Eastern Test Range (AFETR)
Object type
Payload
Rocket body
Debris
Shape & HBR
Box + 1 Pan, 10.1 m
Radar Cross Section
11.087 m², Large (>1 m²)

Expand to show TLE details & history
Last TLE update: 20 hours ago

TLE from 20 hours ago
0 STARLINK-3747
1 52306U 22041AX  26175.15420155  .00000318  00000-0  38079-4 0  9992
2 52306  53.1597 331.0429 0001145  91.8921 268.2202 15.08835054231930
Epoch: 2026-06-24T03:42Z
TLE epoch observation values (Epoch: 2026-06-24T03:42:03.013Z)
Latitude
-0.00001°
Longitude
3.21485°
Altitude
540.675 km
Speed
7.593 km/s
True Right ascension
22h 04m 10s
True Declination
0° 00' 00"
Sunlit
Object was in full shadow at epoch
Visualization orbit readout
Latitude
Unknown
Longitude
Unknown
Altitude
Unknown
Speed
Unknown
Apparent Right ascension
Unknown
Apparent Declination
Unknown
Sunlit
N/A
Visualization observer readout
Local Sidereal Time
10:34:20
Azimuth
Unknown
Elevation
Unknown
Doppler factor
Unknown
Orbital elements
Apogee altitude
540.805 km
Perigee altitude
539.221 km
Semi-major axis
6,918.15 km
Eccentricity
0.00011
Inclination
53.1597°
RAAN
331.0429°
Arg. of periapsis
91.8921°
True anomaly
268.20709°
Mean anomaly
268.2202°
Eccentric anomaly
268.21364°
Mean motion
3.77188 °/min
Orbital period
95.44 mins
BSTAR
0.000038079
Loading maneuver chart data...
Computing Atmospheric mass density...
Loading historical data...
Loading historical data...
Loading historical data...
Loading historical data...
Loading historical data...
Loading historical data...
Loading historical data...

Documentation

Showing up to 5 results
|